Tracking 28126 objects as of 1-Oct-2023
HD Live streaming from Space Station
objects crossing your sky now

STARLINK-3594

Track STARLINK-3594 now!
10-day predictions
STARLINK-3594 is classified as:


NORAD ID: 51895
Int'l Code: 2022-022AV
Perigee: 545.9 km
Apogee: 547.8 km
Inclination: 53.2 °
Period: 95.4 minutes
Semi major axis: 6917 km
RCS: Unknown
Launch date: March 3, 2022
Source: United States (US)
Launch site: AIR FORCE EASTERN TEST RANGE (AFETR)
Your satellite tracking list
Your tracking list is empty




NASA's NSSDC Master Catalog

Two Line Element Set (TLE):
1 51895U 22022AV  23273.73787720  .00003451  00000-0  23472-3 0  9998
2 51895  53.2189  38.7542 0001351  71.5403 288.5736 15.08851454 88744
Source of the keplerian elements: AFSPC